星链-31400 (STARLINK-31400 )

导读

STARLINK-31400是美国SpaceX公司于2024年4月5日发射的第二代星链(Starlink)卫星,属于星链全球低轨宽带互联网星座的组成部分。该卫星运行在近地轨道,配备增强型相控阵天线与激光星间链路,采用氪离子霍尔推进系统,具备自主避碰能力,设计寿命5-7年,旨在为全球提供高速低延迟宽带服务,进一步扩展星链的全球覆盖与网络容量。

Basic Information
目录编号:
59405
目录名称:
STARLINK-31400
国际标识:
2024-064H
轨道中心:
EARTH
卫星名称:
星链-31400
卫星全名:
星链-31400 (STARLINK-31400 )
卫星状态:
在轨 (已飞行882 天)
发射日期:
2024-04-05 UTC
国别 :
美国 (US)
星等 :
--
Orbit Information
数据来源 国际轨道数据
星历时间: 2026-09-03T09:04:20+0800
1天前
查看轨道信息
半长轴: 6861.19km
偏心率: 0.0001151
轨道倾角: 42.999°
近地点辐角 273.790°
升交点赤经 134.242°
平近点角 86.282°
近地点: 482.263km
远地点: 483.843km
周期: 94.267分钟
每日圈数: 15.275789
Detailed Information
固有亮度:
5
最大亮度:
0.3
卫星平台:
Starlink v2.0 mini
覆盖范围:
全球
运营商:
太空探索技术公司
运营商所在国:
美国
制造商(研发单位):
太空探索技术公司
制造商所在国:
美国
使用方式:
暂无
Satellite Introduction
星链(Starlink)计划是由太空探索技术公司(SpaceX)提出的一个巨型低轨卫星互联网星座项目,计划在2019年至2024年间在太空搭建由约1.2万颗卫星组成的“星链”网络,其中1584颗将部署在地球上空550千米处的近地轨道,并从2020年开始工作。该卫星仍在工作。
2D Orbit Map
3D Orbit Map
Orbit Altitude Analysis Chart
Orbit Inclination Analysis Chart
Orbit Comprehensive Analysis Chart
View Comprehensive Chart
Conjunction Data List
Event ID Objects TCA Miss Dist (km) Collision Risk Probability Collision Risk Index (CRI) Action
CDM_260904-160505-940506-164321
2026-09-04T
16:05:15+0000
0.387 km
远距离
2.470443E-4 高风险 0.83
CDM_260905-065905-940506-164321
2026-09-05T
06:59:41+0000
1.111 km
极远距离
1.207564E-5 中风险 0.57
CDM_260904-143105-940506-164321
2026-09-04T
14:31:05+0000
1.434 km
极远距离
5.067651E-6 低风险 0.49
CDM_260905-052505-940506-164321
2026-09-05T
05:25:32+0000
1.595 km
极远距离
3.621779E-6 低风险 0.46
CDM_260905-054705-829805-940521
SPIP (58298)
2026-09-05T
05:47:03+0000
2.163 km
极远距离
2.297359E-6 低风险 0.42
CDM_260904-173905-940506-164321
2026-09-04T
17:39:24+0000
2.222 km
极远距离
1.517849E-6 低风险 0.39
CDM_260903-024504-431005-940521
OBJECT A (44310)
2026-09-03T
02:45:02+0000
2.924 km
极远距离
1.109563E-6 低风险 0.36